Lid_Strength_Index
0 1 1 1 1 1 2 2 2 2 2 2 2 1 1 2 3 0 2 5 4 1 2 3 3 3 3 3 3 3 6 8 7 7 7 5 6 5 5 5 5 4 3 3 2
-0 0 0 0 1 1 1 1 2 2 1 2 2 1 1 2 1 2 5 1 2 1 3 4 4 4 4 4 3 5 7 7 5 5 6 6 6 6 6 6 6 5 4 3 2
-1 -0 -0 -0 0 1 1 1 2 1 1 1 1 1 2 2 3 4 2 1 1 2 3 4 4 4 6 5 5 5 7 6 6 6 6 6 6 6 6 7 6 5 5 4 4
-1 -1 -1 -0 -0 0 1 1 1 1 1 1 1 1 2 0 8 2 1 1 1 3 4 5 6 6 7 7 6 7 7 6 6 6 7 7 6 7 6 6 5 5 5 5 5
0 0 -0 -0 -0 0 1 1 1 1 1 1 1 1 1 3 3 2 2 2 3 4 5 6 6 7 7 7 7 8 7 7 6 6 6 5 6 6 6 5 4 4 4 5 5
1 1 1 1 0 0 1 1 1 1 1 2 1 2 2 7 -0 1 2 3 3 4 6 6 7 6 7 7 8 7 7 6 6 6 6 7 6 6 6 5 5 5 6 5 6
1 2 1 1 1 1 1 1 1 1 1 2 2 1 3 4 -1 0 2 2 3 4 6 6 6 7 7 8 6 6 8 6 6 7 7 6 8 8 5 5 6 6 6 6 6
3 2 3 3 3 2 2 1 2 1 1 2 2 1 5 -0 -1 0 0 1 1 3 5 5 6 6 7 6 6 8 7 9 7 7 7 7 9 7 5 6 6 6 6 6 6
3 3 3 3 3 3 3 2 2 1 2 2 1 2 6 1 2 2 1 2 2 4 5 6 6 7 7 8 8 8 10 9 9 7 8 7 8 7 6 6 7 6 6 6 6
3 3 3 3 4 4 3 3 3 3 3 1 1 5 3 4 3 4 4 1 4 5 7 7 7 8 8 8 11 10 11 10 10 9 9 9 9 7 6 6 6 6 6 6 7
3 3 4 4 4 4 4 4 5 6 5 5 5 5 4 3 3 5 3 3 5 6 8 7 9 10 8 9 9 10 11 11 9 8 10 9 9 7 6 6 6 6 6 6 7
3 3 3 3 3 4 2 5 4 7 8 3 3 3 2 2 5 3 3 6 7 9 7 8 10 8 9 9 11 11 12 11 9 8 9 9 8 7 6 7 6 6 6 6 6
3 3 3 4 3 4 4 4 4 5 8 5 3 4 4 3 5 5 5 6 7 8 8 9 9 9 10 10 11 11 11 11 10 9 8 8 9 7 6 6 6 6 6 6 6
4 4 3 4 5 3 5 3 3 4 11 9 7 5 4 3 6 2 2 5 7 8 7 8 7 8 9 10 10 12 9 10 10 10 12 9 13 9 7 8 8 7 7 6 7
4 4 4 3 4 5 4 2 2 4 18 10 7 4 5 6 7 6 3 4 8 8 8 9 9 10 10 10 9 11 9 9 9 10 10 10 11 9 8 9 8 7 6 6 6
4 4 4 4 3 3 2 2 4 14 19 12 9 9 8 7 7 7 6 3 4 8 8 7 7 9 9 9 9 9 9 9 9 10 13 10 11 11 9 9 8 7 6 6 6
3 4 3 2 6 2 1 4 13 17 11 13 12 10 9 9 9 8 9 8 10 12 12 9 8 8 8 10 8 9 10 13 14 14 14 10 12 10 8 8 8 7 6 6 6
3 3 3 2 1 0 2 9 16 14 13 11 11 10 11 9 9 9 9 10 8 9 10 12 13 8 7 9 10 9 9 13 16 15 13 11 14 9 8 7 6 6 5 5 6
3 3 4 3 1 0 6 14 14 13 11 11 11 11 11 9 8 9 9 9 8 7 10 10 11 7 7 7 7 9 11 8 12 11 13 12 10 8 8 8 7 6 6 5 5
3 4 5 1 0 3 9 12 11 9 9 9 13 11 12 10 10 10 9 7 8 6 6 9 12 9 9 8 7 8 8 12 12 17 17 14 12 11 9 8 7 6 6 5 5
2 5 2 -0 1 6 13 11 9 7 7 9 10 10 10 10 10 10 9 8 6 7 6 7 9 11 10 10 10 10 11 11 11 12 15 16 13 8 10 7 6 6 5 4 4
3 8 0 -0 9 8 11 8 8 7 6 7 7 8 9 9 9 9 9 7 7 6 9 7 8 12 11 9 8 8 10 10 13 14 12 12 14 6 6 6 6 5 5 4 4
6 5 1 1 12 11 8 8 7 8 8 8 8 7 7 9 10 9 8 8 8 7 8 8 10 13 12 11 9 11 9 9 9 9 12 16 15 6 6 6 5 5 4 5 5
6 10 6 5 6 9 9 9 9 6 7 7 8 7 7 8 7 9 9 9 7 7 8 6 9 11 13 12 9 11 10 9 9 13 12 12 13 8 7 6 5 5 4 5 6
5 8 6 11 10 8 8 7 9 10 6 6 8 8 8 10 9 9 9 9 8 8 8 8 11 12 10 9 9 10 10 9 11 10 12 12 10 8 7 6 5 5 5 5 6
9 7 5 6 6 9 9 10 9 8 8 8 9 7 7 10 9 11 9 9 10 8 8 7 12 12 15 10 9 10 9 9 9 9 10 10 10 6 5 5 6 6 6 6 6
6 3 5 6 7 9 10 9 8 6 6 6 7 8 9 8 7 7 6 7 8 9 9 9 12 13 15 10 10 13 12 10 9 8 8 11 8 6 6 6 6 5 6 6 6